Simultaneous Nadir Overpasses (SNOs) Predictions

Prediction of SNOs between METOP-C and LANDSAT-8 Satellite Orbit:

Table of predicted SNOs for the next 14.0 days since TLE Epoch: 1/2/2021
Index Date (METOP-C) Time (METOP-C) Lat,Lon (METOP-C) SZA (METOP-C ) Date (LANDSAT-8) Time (LANDSAT-8) Lat,Lon (LANDSAT-8) SZA (LANDSAT-8 ) Distance(km) Time Diff (sec)
1 01/04/2021 01:38:24 81.06,-166.04 105.47 01/04/2021 01:39:27 81.06,-165.96 105.50 1.36 63
2 01/04/2021 02:29:02 -81.09, 2.17 74.44 01/04/2021 02:28:53 -81.08, 1.99 74.46 3.14 9
3 01/06/2021 21:12:46 81.06, -99.59 105.12 01/06/2021 21:13:40 81.06, -99.51 105.15 1.55 54
4 01/06/2021 22:03:25 -81.08, 68.30 74.82 01/06/2021 22:03:06 -81.08, 68.47 74.81 3.01 19
5 01/09/2021 16:47:09 81.06, -33.18 104.71 01/09/2021 16:47:54 81.06, -33.09 104.73 1.41 45
6 01/09/2021 17:37:48 -81.08, 134.78 75.23 01/09/2021 17:37:20 -81.08, 134.90 75.23 2.11 28
7 01/12/2021 12:21:31 81.07, 33.59 104.29 01/12/2021 12:22:07 81.08, 33.63 104.31 0.96 36
8 01/12/2021 13:12:10 -81.10,-158.39 75.64 01/12/2021 13:11:33 -81.10,-158.35 75.65 0.87 37
9 01/15/2021 07:55:53 81.07, 99.97 103.77 01/15/2021 07:56:20 81.07, 99.96 103.77 0.13 27



Historial Predications of SNOs between METOP-C and LANDSAT-8
